TimePDT,TemperatureF,Dew PointF,Humidity,Sea Level PressureIn,VisibilityMPH,Wind Direction,Wind SpeedMPH,Gust SpeedMPH,PrecipitationIn,Events,Conditions,WindDirDegrees,DateUTC
12:53 AM,53.1,36.0,52,29.91,10.0,Calm,Calm,-,N/A,,Clear,0,2013-09-23 07:53:00
1:53 AM,53.1,35.1,50,29.91,10.0,Calm,Calm,-,N/A,,Clear,0,2013-09-23 08:53:00
2:53 AM,51.1,36.0,56,29.91,10.0,South,3.5,-,N/A,,Clear,190,2013-09-23 09:53:00
3:53 AM,50.0,35.1,57,29.91,10.0,South,3.5,-,N/A,,Clear,180,2013-09-23 10:53:00
4:53 AM,48.9,37.0,64,29.93,10.0,SSW,4.6,-,N/A,,Clear,210,2013-09-23 11:53:00
5:53 AM,50.0,35.1,57,29.94,10.0,South,5.8,-,N/A,,Clear,170,2013-09-23 12:53:00
6:53 AM,48.9,36.0,61,29.96,10.0,South,4.6,-,N/A,,Clear,190,2013-09-23 13:53:00
7:53 AM,55.9,37.9,51,29.98,10.0,Calm,Calm,-,N/A,,Clear,0,2013-09-23 14:53:00
8:53 AM,62.1,39.9,44,29.99,10.0,Calm,Calm,-,N/A,,Clear,0,2013-09-23 15:53:00
9:53 AM,64.9,39.9,40,29.99,10.0,Calm,Calm,-,N/A,,Clear,0,2013-09-23 16:53:00
10:53 AM,69.1,39.0,33,29.99,10.0,Calm,Calm,-,N/A,,Clear,0,2013-09-23 17:53:00
11:53 AM,73.0,37.9,28,29.98,10.0,Variable,5.8,-,N/A,,Clear,0,2013-09-23 18:53:00
12:53 PM,79.0,36.0,21,29.96,10.0,NE,4.6,-,N/A,,Clear,50,2013-09-23 19:53:00
1:53 PM,82.9,33.1,17,29.92,10.0,North,10.4,-,N/A,,Clear,360,2013-09-23 20:53:00
2:53 PM,84.9,30.9,14,29.91,10.0,NE,6.9,18.4,0.00,,Clear,40,2013-09-23 21:53:00
3:53 PM,84.9,30.0,14,29.89,10.0,NNE,5.8,-,0.00,,Clear,20,2013-09-23 22:53:00
4:53 PM,87.1,28.0,12,29.88,10.0,NNE,4.6,-,N/A,,Clear,30,2013-09-23 23:53:00
5:53 PM,86.0,28.0,12,29.88,10.0,Calm,Calm,-,N/A,,Clear,0,2013-09-24 00:53:00
6:53 PM,82.9,28.0,14,29.88,10.0,Calm,Calm,-,N/A,,Clear,0,2013-09-24 01:53:00
7:53 PM,75.9,32.0,20,29.90,10.0,WSW,6.9,-,N/A,,Clear,250,2013-09-24 02:53:00
8:53 PM,73.9,30.9,21,29.92,10.0,SSW,10.4,-,N/A,,Clear,210,2013-09-24 03:53:00
9:53 PM,70.0,30.0,23,29.93,10.0,SSW,5.8,-,N/A,,Clear,210,2013-09-24 04:53:00
10:53 PM,71.1,30.9,23,29.92,10.0,Calm,Calm,-,N/A,,Clear,0,2013-09-24 05:53:00
11:53 PM,64.0,32.0,30,29.92,10.0,East,4.6,-,N/A,,Clear,90,2013-09-24 06:53:00